����,���ϕ���(m/s),���ϕ���,�ő�u�ԕ���(m/s),�ő啗��������,�C��(��),���x(%),10���Ԉړ��ώZ�J��(mm),1���Ԉړ��ώZ�J��(mm),���J��(mm),�݌v�J��(mm),����(���ώZ)(MJ/m2),����(���ώZ)(min),���n�C��(hPa),�C�ʋC��(hPa)
2021-07-05T00:00:00+09:00,3.1,��,5.4,��,25.8,93.6,0,0,1,6,7.47,33,998.5,1011.8
2021-07-05T00:01:00+09:00,3.1,��,5.4,��,25.8,93.7,0,0,0,6,0,0,998.5,1011.8
2021-07-05T00:02:00+09:00,3.2,��,5.4,��,25.8,93.7,0,0,0,6,0,0,998.5,1011.8
2021-07-05T00:03:00+09:00,3.2,��,5.4,��,25.8,93.8,0,0,0,6,0,0,998.5,1011.8
2021-07-05T00:04:00+09:00,3.3,��,5.4,��,25.8,93.8,0,0,0,6,0,0,998.5,1011.8
2021-07-05T00:05:00+09:00,3.3,��,5.4,��,25.8,93.8,0,0,0,6,0,0,998.5,1011.8
2021-07-05T00:06:00+09:00,3.2,��,5.2,��,25.8,93.8,0,0,0,6,0,0,998.5,1011.8
2021-07-05T00:07:00+09:00,3.1,��,5.2,��,25.8,93.9,0,0,0,6,0,0,998.5,1011.8
2021-07-05T00:08:00+09:00,3.3,��,5.2,��,25.8,93.9,0,0,0,6,0,0,998.5,1011.8
2021-07-05T00:09:00+09:00,3.3,��,5.5,��,25.8,93.9,0,0,0,6,0,0,998.5,1011.8
2021-07-05T00:10:00+09:00,3.3,��,5.8,��쐼,25.8,93.9,0,0,0,6,0,0,998.5,1011.8
2021-07-05T00:11:00+09:00,3.3,��,5.8,��쐼,25.8,93.9,0,0,0,6,0,0,998.5,1011.8
2021-07-05T00:12:00+09:00,3.2,��,5.8,��쐼,25.8,93.9,0,0,0,6,0,0,998.5,1011.8
2021-07-05T00:13:00+09:00,3.3,��,6.4,��,25.8,93.8,0,0,0,6,0,0,998.5,1011.8
2021-07-05T00:14:00+09:00,3.3,��,6.4,��,25.8,93.8,0,0,0,6,0,0,998.5,1011.8
2021-07-05T00:15:00+09:00,3.3,��,6.4,��,25.8,93.7,0,0,0,6,0,0,998.5,1011.8
2021-07-05T00:16:00+09:00,3.4,��,6.4,��,25.8,93.7,0,0,0,6,0,0,998.5,1011.8
2021-07-05T00:17:00+09:00,3.7,��,7.4,��,25.8,93.6,0,0,0,6,0,0,998.5,1011.8
2021-07-05T00:18:00+09:00,3.9,��,7.4,��,25.8,93.6,0,0,0,6,0,0,998.5,1011.8
2021-07-05T00:19:00+09:00,4,��,7.4,��,25.9,93.6,0,0,0,6,0,0,998.5,1011.8
2021-07-05T00:20:00+09:00,4.1,��,7.4,��,25.8,93.4,0,0,0,6,0,0,998.5,1011.8
2021-07-05T00:21:00+09:00,4.2,��,7.4,��,25.8,93.4,0,0,0,6,0,0,998.5,1011.8
2021-07-05T00:22:00+09:00,4.3,��,7.4,��,25.8,93.4,0,0,0,6,0,0,998.4,1011.7
2021-07-05T00:23:00+09:00,4.3,��,7.4,��,25.8,93.6,0,0,0,6,0,0,998.4,1011.7
2021-07-05T00:24:00+09:00,4.3,��,7.4,��,25.7,93.7,0,0,0,6,0,0,998.4,1011.7
2021-07-05T00:25:00+09:00,4.3,��,7.4,��,25.7,93.8,0,0,0,6,0,0,998.4,1011.7
2021-07-05T00:26:00+09:00,4.1,��,7.4,��,25.7,94,0,0,0,6,0,0,998.3,1011.6
2021-07-05T00:27:00+09:00,4,��,6.8,��,25.7,94.2,0,0,0,6,0,0,998.3,1011.6
2021-07-05T00:28:00+09:00,3.8,��,6.2,��,25.7,94.3,0,0,0,6,0,0,998.3,1011.6
2021-07-05T00:29:00+09:00,3.7,��,5.5,��,25.7,94.4,0,0,0,6,0,0,998.4,1011.7
2021-07-05T00:30:00+09:00,3.6,��,5.5,��,25.7,94.6,0,0,0,6,0,0,998.4,1011.7
2021-07-05T00:31:00+09:00,3.6,��,5.5,��,25.7,94.7,0,0,0,6,0,0,998.4,1011.7
2021-07-05T00:32:00+09:00,3.5,��,5.5,��,25.7,94.7,0,0,0,6,0,0,998.3,1011.6
2021-07-05T00:33:00+09:00,3.4,��,5.5,��,25.7,94.6,0,0,0,6,0,0,998.3,1011.6
2021-07-05T00:34:00+09:00,3.3,��,5.2,��,25.7,94.5,0,0,0,6,0,0,998.3,1011.6
2021-07-05T00:35:00+09:00,3.3,��,5.2,��,25.7,94.5,0,0,0,6,0,0,998.3,1011.6
2021-07-05T00:36:00+09:00,3.5,��,6.1,��쓌,25.7,94.5,0,0,0,6,0,0,998.3,1011.6
2021-07-05T00:37:00+09:00,3.5,��,6.1,��쓌,25.7,94.4,0,0,0,6,0,0,998.3,1011.6
2021-07-05T00:38:00+09:00,3.4,��,6.1,��쓌,25.7,94.4,0,0,0,6,0,0,998.3,1011.6
2021-07-05T00:39:00+09:00,3.5,��,6.1,��쓌,25.7,94.4,0,0,0,6,0,0,998.3,1011.6
2021-07-05T00:40:00+09:00,3.6,��,6.1,��쓌,25.7,94.4,0,0,0,6,0,0,998.3,1011.6
2021-07-05T00:41:00+09:00,3.6,��,6.1,��쓌,25.7,94.4,0,0,0,6,0,0,998.3,1011.6
2021-07-05T00:42:00+09:00,3.6,��,6.1,��쓌,25.7,94.4,0,0,0,6,0,0,998.3,1011.6
2021-07-05T00:43:00+09:00,3.6,��,6.1,��쓌,25.7,94.5,0,0,0,6,0,0,998.3,1011.6
2021-07-05T00:44:00+09:00,3.7,��,6.1,��쓌,25.7,94.4,0,0,0,6,0,0,998.3,1011.6
2021-07-05T00:45:00+09:00,3.7,��,6.1,��쓌,25.7,94.4,0,0,0,6,0,0,998.3,1011.6
2021-07-05T00:46:00+09:00,3.6,��,5.4,��,25.7,94.4,0,0,0,6,0,0,998.3,1011.6
2021-07-05T00:47:00+09:00,3.6,��,5.4,��,25.7,94.4,0,0,0,6,0,0,998.3,1011.6
2021-07-05T00:48:00+09:00,3.7,��,5.9,��,25.7,94.4,0,0,0,6,0,0,998.3,1011.6
2021-07-05T00:49:00+09:00,3.6,��,5.9,��,25.7,94.5,0,0,0,6,0,0,998.3,1011.6
2021-07-05T00:50:00+09:00,3.6,��,5.9,��,25.7,94.5,0,0,0,6,0,0,998.3,1011.6
2021-07-05T00:51:00+09:00,3.5,��,5.9,��,25.7,94.5,0,0,0,6,0,0,998.2,1011.5
2021-07-05T00:52:00+09:00,3.6,��,5.9,��,25.7,94.5,0,0,0,6,0,0,998.3,1011.6
2021-07-05T00:53:00+09:00,3.6,��,5.9,��,25.7,94.5,0,0,0,6,0,0,998.3,1011.6
2021-07-05T00:54:00+09:00,,,,,,,,,,,,,,
2021-07-05T00:55:00+09:00,3.5,��,5.9,��,25.7,94.5,0,0,0,6,0,0,998.2,1011.5
2021-07-05T00:56:00+09:00,3.5,��,5.9,��,25.7,94.5,0,0,0,6,0,0,998.2,1011.5
2021-07-05T00:57:00+09:00,3.6,��,5.9,��,25.7,94.4,0,0,0,6,0,0,998.2,1011.5
2021-07-05T00:58:00+09:00,3.6,��,5.5,��,25.7,94.4,0,0,0,6,0,0,998.2,1011.5
2021-07-05T00:59:00+09:00,3.6,��,5.5,��,25.7,94.4,0,0,0,6,0,0,998.2,1011.5
2021-07-05T01:00:00+09:00,3.5,��,5.5,��,25.7,94.4,0,0,0,6,0,0,998.2,1011.5
2021-07-05T01:01:00+09:00,3.5,��,5.2,��,25.7,94.4,0,0,0,6,0,0,998.3,1011.6
2021-07-05T01:02:00+09:00,3.5,��,5.2,��,25.7,94.4,0,0,0,6,0,0,998.2,1011.5
2021-07-05T01:03:00+09:00,3.3,��,5.1,��,25.7,94.5,0,0,0,6,0,0,998.2,1011.5
2021-07-05T01:04:00+09:00,3.3,��,5.1,��,25.6,94.5,0,0,0,6,0,0,998.2,1011.5
2021-07-05T01:05:00+09:00,3.3,��,5.1,��,25.6,94.6,0,0,0,6,0,0,998.2,1011.5
2021-07-05T01:06:00+09:00,3.3,��,6.4,��,25.6,94.7,0,0,0,6,0,0,998.1,1011.4
2021-07-05T01:07:00+09:00,3.1,��,6.4,��,25.6,94.7,0,0,0,6,0,0,998.1,1011.4
2021-07-05T01:08:00+09:00,3.1,��,6.4,��,25.7,94.7,0,0,0,6,0,0,998.1,1011.4
2021-07-05T01:09:00+09:00,3,��,6.4,��,25.7,94.6,0,0,0,6,0,0,998.1,1011.4
2021-07-05T01:10:00+09:00,3.1,��,6.4,��,25.7,94.5,0,0,0,6,0,0,998.2,1011.5
2021-07-05T01:11:00+09:00,3.1,��,6.4,��,25.6,94.5,0,0,0,6,0,0,998.1,1011.4
2021-07-05T01:12:00+09:00,3.1,��,6.4,��,25.6,94.5,0,0,0,6,0,0,998.1,1011.4
2021-07-05T01:13:00+09:00,3.2,��,6.4,��,25.6,94.5,0,0,0,6,0,0,998.1,1011.4
2021-07-05T01:14:00+09:00,3.1,��,6.4,��,25.6,94.5,0,0,0,6,0,0,998.1,1011.4
2021-07-05T01:15:00+09:00,3,��,6.4,��,25.6,94.5,0,0,0,6,0,0,998.1,1011.4
2021-07-05T01:16:00+09:00,3,��,6.2,��,25.6,94.6,0,0,0,6,0,0,998.1,1011.4
2021-07-05T01:17:00+09:00,3.1,��,6.2,��,25.6,94.6,0,0,0,6,0,0,998.1,1011.4
2021-07-05T01:18:00+09:00,3.1,��,6.2,��,25.6,94.6,0,0,0,6,0,0,998.1,1011.4
2021-07-05T01:19:00+09:00,3.1,��,6.1,��,25.6,94.6,0,0,0,6,0,0,998.1,1011.4
2021-07-05T01:20:00+09:00,3,��,6.1,��,25.6,94.6,0,0,0,6,0,0,998.1,1011.4
2021-07-05T01:21:00+09:00,2.8,��,6.1,��,25.7,94.5,0,0,0,6,0,0,998.1,1011.4
2021-07-05T01:22:00+09:00,2.7,��,6.1,��,25.7,94.5,0,0,0,6,0,0,998.1,1011.4
2021-07-05T01:23:00+09:00,2.7,��,6.1,��,25.7,94.4,0,0,0,6,0,0,998.1,1011.4
2021-07-05T01:24:00+09:00,2.7,��,6.1,��,25.7,94.3,0,0,0,6,0,0,998.1,1011.4
2021-07-05T01:25:00+09:00,2.7,��,6.1,��,25.7,94.2,0,0,0,6,0,0,998.1,1011.4
2021-07-05T01:26:00+09:00,2.7,��,6.1,��,25.7,94.2,0,0,0,6,0,0,998.1,1011.4
2021-07-05T01:27:00+09:00,2.6,��,6.1,��,25.7,94.2,0,0,0,6,0,0,998.1,1011.4
2021-07-05T01:28:00+09:00,2.5,��,6.1,��,25.7,94.2,0,0,0,6,0,0,998,1011.3
2021-07-05T01:29:00+09:00,2.4,��,6.1,��,25.7,94.2,0,0,0,6,0,0,998.1,1011.4
2021-07-05T01:30:00+09:00,2.2,��,5,��쓌,25.7,94.1,0,0,0,6,0,0,998.1,1011.4
2021-07-05T01:31:00+09:00,2.2,��,5,��쓌,25.7,94,0,0,0,6,0,0,998.1,1011.4
2021-07-05T01:32:00+09:00,2,��,5,��쓌,25.7,94,0,0,0,6,0,0,998.1,1011.4
2021-07-05T01:33:00+09:00,1.9,��,5,��쓌,25.7,93.9,0,0,0,6,0,0,998.1,1011.4
2021-07-05T01:34:00+09:00,1.9,��,5.6,��,25.7,93.8,0,0,0,6,0,0,998.1,1011.4
2021-07-05T01:35:00+09:00,2,��,5.7,��,25.7,93.8,0,0,0,6,0,0,998.1,1011.4
2021-07-05T01:36:00+09:00,2,��,5.7,��,25.7,93.8,0,0,0,6,0,0,998.1,1011.4
2021-07-05T01:37:00+09:00,1.9,��,5.7,��,25.7,93.8,0,0,0,6,0,0,998.1,1011.4
2021-07-05T01:38:00+09:00,1.8,��,5.7,��,25.7,93.8,0,0,0,6,0,0,998.1,1011.4
2021-07-05T01:39:00+09:00,1.9,��,6,��쐼,25.7,93.9,0,0,0,6,0,0,998.1,1011.4
2021-07-05T01:40:00+09:00,2.1,��,6,��쐼,25.7,94,0,0,0,6,0,0,998.1,1011.4
2021-07-05T01:41:00+09:00,2.3,��,6,��쐼,25.7,94,0,0,0,6,0,0,998.1,1011.4
2021-07-05T01:42:00+09:00,2.5,��,6.6,��쓌,25.7,94.1,0,0,0,6,0,0,998,1011.3
2021-07-05T01:43:00+09:00,2.7,��,6.6,��쓌,25.7,94.1,0,0,0,6,0,0,998,1011.3
2021-07-05T01:44:00+09:00,2.6,��,6.6,��쓌,25.7,94,0,0,0,6,0,0,998,1011.3
2021-07-05T01:45:00+09:00,2.5,��,6.6,��쓌,25.7,93.9,0,0,0,6,0,0,998,1011.3
2021-07-05T01:46:00+09:00,2.5,��,6.6,��쓌,25.7,93.9,0,0,0,6,0,0,998,1011.3
2021-07-05T01:47:00+09:00,2.5,��,6.6,��쓌,25.7,93.8,0,0,0,6,0,0,997.9,1011.2
2021-07-05T01:48:00+09:00,2.5,��,6.6,��쓌,25.7,93.9,0,0,0,6,0,0,998,1011.3
2021-07-05T01:49:00+09:00,2.3,��,6.6,��쓌,25.7,93.9,0,0,0,6,0,0,997.9,1011.2
2021-07-05T01:50:00+09:00,2.2,��,6.6,��쓌,25.6,93.9,0,0,0,6,0,0,997.9,1011.2
2021-07-05T01:51:00+09:00,2,��,6.6,��쓌,25.6,94,0,0,0,6,0,0,997.9,1011.2
2021-07-05T01:52:00+09:00,1.9,��쓌,6,��,25.6,94.1,0,0,0,6,0,0,998,1011.3
2021-07-05T01:53:00+09:00,1.8,��쓌,6,��,25.6,94.1,0,0,0,6,0,0,998,1011.3
2021-07-05T01:54:00+09:00,1.7,��쓌,6,��,25.7,94.1,0,0,0,6,0,0,997.9,1011.2
2021-07-05T01:55:00+09:00,1.6,��쓌,5.3,��,25.6,94,0,0,0,6,0,0,997.9,1011.2
2021-07-05T01:56:00+09:00,1.5,��쓌,5.3,��,25.7,94,0,0,0,6,0,0,997.9,1011.2
2021-07-05T01:57:00+09:00,1.5,��쓌,5.3,��,25.7,93.9,0,0,0,6,0,0,997.9,1011.2
2021-07-05T01:58:00+09:00,1.5,��쓌,5.3,��,25.7,93.9,0,0,0,6,0,0,998,1011.3
2021-07-05T01:59:00+09:00,1.6,��쓌,5.3,��,25.7,93.9,0,0,0,6,0,0,998,1011.3
2021-07-05T02:00:00+09:00,1.5,��쓌,5.3,��,25.7,93.9,0,0,0,6,0,0,998,1011.3
2021-07-05T02:01:00+09:00,1.5,��쓌,5.3,��,25.6,93.9,0,0,0,6,0,0,998,1011.3
2021-07-05T02:02:00+09:00,1.5,��쓌,5.3,��,25.6,94,0,0,0,6,0,0,998,1011.3
2021-07-05T02:03:00+09:00,1.6,��쓌,5.3,��,25.6,94,0,0,0,6,0,0,998.1,1011.4
2021-07-05T02:04:00+09:00,1.5,��쓌,5.3,��,25.7,94.1,0,0,0,6,0,0,998.1,1011.4
2021-07-05T02:05:00+09:00,1.6,��쓌,5.3,��,25.7,94.1,0,0,0,6,0,0,998,1011.3
2021-07-05T02:06:00+09:00,1.7,��쓌,5.3,��,25.7,94,0,0,0,6,0,0,998,1011.3
2021-07-05T02:07:00+09:00,1.7,��쓌,5.3,��,25.7,93.9,0,0,0,6,0,0,997.9,1011.2
2021-07-05T02:08:00+09:00,1.8,��쓌,5.3,��,25.7,93.8,0,0,0,6,0,0,998,1011.3
2021-07-05T02:09:00+09:00,1.9,��쓌,6.5,��쓌,25.7,93.7,0,0,0,6,0,0,997.9,1011.2
2021-07-05T02:10:00+09:00,2,��쓌,6.5,��쓌,25.7,93.7,0,0,0,6,0,0,998,1011.3
2021-07-05T02:11:00+09:00,2,��쓌,6.5,��쓌,25.7,93.6,0,0,0,6,0,0,997.9,1011.2
2021-07-05T02:12:00+09:00,2.1,��쓌,6.5,��쓌,25.7,93.6,0,0,0,6,0,0,998,1011.3
2021-07-05T02:13:00+09:00,2,��,6.5,��쓌,25.7,93.7,0,0,0,6,0,0,998,1011.3
2021-07-05T02:14:00+09:00,2,��,6.5,��쓌,25.7,93.7,0,0,0,6,0,0,998,1011.3
2021-07-05T02:15:00+09:00,2,��,6.5,��쓌,25.7,93.7,0,0,0,6,0,0,997.9,1011.2
2021-07-05T02:16:00+09:00,2.1,��,6.5,��쓌,25.7,93.7,0,0,0,6,0,0,998,1011.3
2021-07-05T02:17:00+09:00,2.1,��,6.5,��쓌,25.7,93.6,0,0,0,6,0,0,998,1011.3
2021-07-05T02:18:00+09:00,2.2,��,6.5,��쓌,25.7,93.6,0,0,0,6,0,0,998,1011.3
2021-07-05T02:19:00+09:00,2.1,��,6.2,��,25.7,93.6,0,0,0,6,0,0,998,1011.3
2021-07-05T02:20:00+09:00,2.2,��,6.2,��,25.7,93.6,0,0,0,6,0,0,998,1011.3
2021-07-05T02:21:00+09:00,2.2,��,6.2,��,25.7,93.6,0,0,0,6,0,0,997.9,1011.2
2021-07-05T02:22:00+09:00,2.2,��,6.2,��,25.7,93.7,0,0,0,6,0,0,998,1011.3
2021-07-05T02:23:00+09:00,2.2,��,6.2,��,25.7,93.7,0,0,0,6,0,0,998,1011.3
2021-07-05T02:24:00+09:00,2.3,��,6.2,��,25.7,93.7,0,0,0,6,0,0,998,1011.3
2021-07-05T02:25:00+09:00,2.4,��,6.2,��,25.7,93.6,0,0,0,6,0,0,998,1011.3
2021-07-05T02:26:00+09:00,2.4,��,6.2,��,25.7,93.5,0,0,0,6,0,0,997.9,1011.2
2021-07-05T02:27:00+09:00,2.4,��,6.2,��,25.7,93.5,0,0,0,6,0,0,998,1011.3
2021-07-05T02:28:00+09:00,2.2,��쓌,6.2,��쓌,25.7,93.5,0,0,0,6,0,0,998,1011.3
2021-07-05T02:29:00+09:00,2.4,��쓌,6.2,��쓌,25.7,93.5,0,0,0,6,0,0,998.1,1011.4
2021-07-05T02:30:00+09:00,2.4,��,6.2,��쓌,25.7,93.5,0,0,0,6,0,0,998.1,1011.4
2021-07-05T02:31:00+09:00,2.4,��,6.2,��쓌,25.7,93.5,0,0,0,6,0,0,998.1,1011.4
2021-07-05T02:32:00+09:00,2.5,��,7.6,��,25.7,93.6,0,0,0,6,0,0,998,1011.3
2021-07-05T02:33:00+09:00,2.6,��,7.6,��,25.6,93.7,0,0,0,6,0,0,998,1011.3
2021-07-05T02:34:00+09:00,2.7,��,7.6,��,25.6,93.8,0,0,0,6,0,0,998,1011.3
2021-07-05T02:35:00+09:00,2.7,��,7.6,��,25.6,93.9,0,0,0,6,0,0,998.1,1011.4
2021-07-05T02:36:00+09:00,2.7,��,7.6,��,25.6,93.9,0,0,0,6,0,0,998.1,1011.4
2021-07-05T02:37:00+09:00,2.7,��,7.6,��,25.6,94,0,0,0,6,0,0,998.1,1011.4
2021-07-05T02:38:00+09:00,2.6,��,7.6,��,25.6,94.1,0,0,0,6,0,0,998.1,1011.4
2021-07-05T02:39:00+09:00,2.5,��,7.6,��,25.6,94.1,0,0,0,6,0,0,998.1,1011.4
2021-07-05T02:40:00+09:00,2.3,��,7.6,��,25.6,94.2,0,0,0,6,0,0,998.1,1011.4
2021-07-05T02:41:00+09:00,2.3,��,7.6,��,25.6,94.3,0,0,0,6,0,0,998.1,1011.4
2021-07-05T02:42:00+09:00,2.1,��,6.3,��,25.6,94.4,0,0,0,6,0,0,998.1,1011.4
2021-07-05T02:43:00+09:00,2.1,��,6.3,��,25.5,94.5,0,0,0,6,0,0,998.1,1011.4
2021-07-05T02:44:00+09:00,2.1,��,6.3,��,25.5,94.6,0,0,0,6,0,0,998.1,1011.4
2021-07-05T02:45:00+09:00,1.9,��쓌,6.3,��,25.5,94.8,0,0,0,6,0,0,998.1,1011.4
2021-07-05T02:46:00+09:00,1.8,��쓌,5,��,25.5,94.9,0,0,0,6,0,0,998,1011.3
2021-07-05T02:47:00+09:00,1.8,��쓌,5,��,25.4,95.1,0,0,0,6,0,0,998,1011.3
2021-07-05T02:48:00+09:00,1.7,��쓌,5,��,25.4,95.2,0,0,0,6,0,0,998,1011.3
2021-07-05T02:49:00+09:00,1.9,��쓌,6.1,��,25.5,95.3,0,0,0,6,0,0,997.9,1011.2
2021-07-05T02:50:00+09:00,2.1,��쓌,6.3,��쐼,25.5,95.3,0,0,0,6,0,0,998,1011.3
2021-07-05T02:51:00+09:00,2.2,��,6.3,��쐼,25.5,95.3,0,0,0,6,0,0,998.1,1011.4
2021-07-05T02:52:00+09:00,2.2,��,6.3,��쐼,25.4,95.3,0,0,0,6,0,0,998,1011.3
2021-07-05T02:53:00+09:00,2.1,��,6.3,��쐼,25.4,95.3,0,0,0,6,0,0,998.1,1011.4
2021-07-05T02:54:00+09:00,2,��,6.3,��쐼,25.4,95.4,0,0,0,6,0,0,998,1011.3
2021-07-05T02:55:00+09:00,2,��쓌,6.3,��쐼,25.4,95.4,0,0,0,6,0,0,998,1011.3
2021-07-05T02:56:00+09:00,1.9,��쓌,6.3,��쐼,25.4,95.5,0,0,0,6,0,0,998.1,1011.4
2021-07-05T02:57:00+09:00,1.9,��쓌,6.3,��쐼,25.4,95.5,0,0,0,6,0,0,998,1011.3
2021-07-05T02:58:00+09:00,2,��쓌,6.3,��쐼,25.4,95.5,0,0,0,6,0,0,998,1011.3
2021-07-05T02:59:00+09:00,1.7,��쓌,6.3,��쐼,25.4,95.6,0,0,0,6,0,0,998,1011.3
2021-07-05T03:00:00+09:00,1.6,��쓌,5,�쓌,25.4,95.6,0,0,0,6,0,0,998,1011.3
2021-07-05T03:01:00+09:00,1.5,��쓌,5.5,��쓌,25.4,95.6,0,0,0,6,0,0,997.9,1011.2
2021-07-05T03:02:00+09:00,1.5,��쓌,5.5,��쓌,25.4,95.6,0,0,0,6,0,0,997.9,1011.2
2021-07-05T03:03:00+09:00,1.5,��쓌,5.5,��쓌,25.4,95.6,0,0,0,6,0,0,997.9,1011.2
2021-07-05T03:04:00+09:00,1.5,��쓌,5.5,��쓌,25.4,95.6,0,0,0,6,0,0,997.9,1011.2
2021-07-05T03:05:00+09:00,1.4,��쓌,5.5,��쓌,25.4,95.6,0,0,0,6,0,0,998,1011.3
2021-07-05T03:06:00+09:00,1.4,��쓌,5.5,��쓌,25.4,95.6,0,0,0,6,0,0,998,1011.3
2021-07-05T03:07:00+09:00,1.4,��쓌,5.5,��쓌,25.3,95.6,0,0,0,6,0,0,998,1011.3
2021-07-05T03:08:00+09:00,1.4,��쓌,5.5,��쓌,25.4,95.6,0,0,0,6,0,0,998,1011.3
2021-07-05T03:09:00+09:00,1.5,��쓌,5.5,��쓌,25.3,95.7,0,0,0,6,0,0,998,1011.3
2021-07-05T03:10:00+09:00,1.3,��쓌,5.5,��쓌,25.3,95.7,0,0,0,6,0,0,998,1011.3
2021-07-05T03:11:00+09:00,1.2,��쓌,4.3,��,25.3,95.7,0,0,0,6,0,0,998,1011.3
2021-07-05T03:12:00+09:00,1.3,��쓌,4.3,��,25.3,95.7,0,0,0,6,0,0,998,1011.3
2021-07-05T03:13:00+09:00,1.3,��쓌,4.3,��,25.3,95.7,0,0,0,6,0,0,998,1011.3
2021-07-05T03:14:00+09:00,1.2,��쓌,4.3,��,25.3,95.8,0,0,0,6,0,0,998,1011.3
2021-07-05T03:15:00+09:00,1.3,��쓌,4.3,��,25.3,95.8,0,0,0,6,0,0,998,1011.3
2021-07-05T03:16:00+09:00,1.3,��쓌,4.3,��,25.3,95.8,0,0,0,6,0,0,998,1011.3
2021-07-05T03:17:00+09:00,1.3,��쓌,4.3,��,25.3,95.8,0,0,0,6,0,0,998,1011.3
2021-07-05T03:18:00+09:00,1.2,��,3.9,��,25.3,95.8,0,0,0,6,0,0,998,1011.3
2021-07-05T03:19:00+09:00,1.3,��쓌,4.2,��,25.3,95.8,0,0,0,6,0,0,998,1011.3
2021-07-05T03:20:00+09:00,1.4,��쓌,4.2,��,25.3,95.8,0,0,0,6,0,0,997.9,1011.2
2021-07-05T03:21:00+09:00,1.5,��쓌,4.9,��쐼,25.3,95.8,0,0,0,6,0,0,997.9,1011.2
2021-07-05T03:22:00+09:00,1.4,��쓌,4.9,��쐼,25.3,95.8,0,0,0,6,0,0,997.9,1011.2
2021-07-05T03:23:00+09:00,1.4,��,4.9,��쐼,25.2,95.8,0,0,0,6,0,0,997.9,1011.2
2021-07-05T03:24:00+09:00,1.4,��쓌,4.9,��쐼,25.2,95.9,0,0,0,6,0,0,997.9,1011.2
2021-07-05T03:25:00+09:00,1.4,��쓌,4.9,��쐼,25.2,95.9,0,0,0,6,0,0,997.9,1011.2
2021-07-05T03:26:00+09:00,1.5,��,4.9,��쐼,25.1,96,0,0,0,6,0,0,997.9,1011.2
2021-07-05T03:27:00+09:00,1.5,��,4.9,��쐼,25.1,96.1,0,0,0,6,0,0,997.8,1011.1
2021-07-05T03:28:00+09:00,1.5,��쓌,4.9,��쐼,25.1,96.1,0,0,0,6,0,0,997.8,1011.1
2021-07-05T03:29:00+09:00,1.6,��,5.6,��쓌,25.1,96.2,0,0,0,6,0,0,997.8,1011.1
2021-07-05T03:30:00+09:00,1.6,��쓌,5.6,��쓌,25.1,96.2,0,0,0,6,0,0,997.7,1011
2021-07-05T03:31:00+09:00,1.6,��쓌,7,��,25.1,96.3,0,0,0,6,0,0,997.7,1011
2021-07-05T03:32:00+09:00,2,��쓌,7.4,��,25.1,96.3,0,0,0,6,0,0,997.7,1011
2021-07-05T03:33:00+09:00,2.2,��쓌,7.4,��,25.1,96.3,0,0,0,6,0,0,997.8,1011.1
2021-07-05T03:34:00+09:00,2.4,��쓌,7.4,��,25.1,96.3,0,0,0,6,0,0,997.7,1011
2021-07-05T03:35:00+09:00,2.8,��,7.4,��,25.1,96.3,0,0,0,6,0,0,997.7,1011
2021-07-05T03:36:00+09:00,3,��,7.4,��,25.1,96.3,0,0,0,6,0,0,997.8,1011.1
2021-07-05T03:37:00+09:00,3.2,��,7.4,��,25.1,96.3,0,0,0,6,0,0,997.8,1011.1
2021-07-05T03:38:00+09:00,3.4,��,7.4,��,25.1,96.3,0,0,0,6,0,0,997.8,1011.1
2021-07-05T03:39:00+09:00,3.3,��,7.4,��,25.1,96.2,0,0,0,6,0,0,997.7,1011
2021-07-05T03:40:00+09:00,3.4,��,7.4,��,25.1,96.2,0,0,0,6,0,0,997.8,1011.1
2021-07-05T03:41:00+09:00,3.5,��,7.4,��,25.1,96.2,0,0,0,6,0,0,997.7,1011
2021-07-05T03:42:00+09:00,3.3,��,7.3,��,25.1,96.3,0,0,0,6,0,0,997.8,1011.1
2021-07-05T03:43:00+09:00,3.3,��,7.3,��,25.1,96.3,0,0,0,6,0,0,997.7,1011
2021-07-05T03:44:00+09:00,3.2,��,7.3,��,25,96.3,0,0,0,6,0,0,997.7,1011
2021-07-05T03:45:00+09:00,2.9,��,7.3,��,25,96.4,0,0,0,6,0,0,997.7,1011
2021-07-05T03:46:00+09:00,2.9,��,7.3,��,25,96.4,0,0,0,6,0,0,997.8,1011.1
2021-07-05T03:47:00+09:00,2.9,��,7.3,��,25,96.5,0,0,0,6,0,0,997.7,1011
2021-07-05T03:48:00+09:00,3,��,7.3,��,25,96.5,0,0,0,6,0,0,997.7,1011
2021-07-05T03:49:00+09:00,3.1,��,7.3,��,25,96.6,0,0,0,6,0,0,997.7,1011
2021-07-05T03:50:00+09:00,3.2,��,7.3,��,25,96.6,0,0,0,6,0,0,997.6,1010.9
2021-07-05T03:51:00+09:00,3.1,��,7.3,��,25,96.6,0,0,0,6,0,0,997.7,1011
2021-07-05T03:52:00+09:00,3.3,��,7,��,25,96.6,0,0,0,6,0,0,997.7,1011
2021-07-05T03:53:00+09:00,3.5,��,7,��,25,96.6,0,0,0,6,0,0,997.6,1010.9
2021-07-05T03:54:00+09:00,3.7,��,7,��,25,96.6,0,0,0,6,0,0,997.6,1010.9
2021-07-05T03:55:00+09:00,3.9,��,7,��,25,96.5,0,0,0,6,0,0,997.6,1010.9
2021-07-05T03:56:00+09:00,4,��,7,��,25,96.5,0,0,0,6,0,0,997.6,1010.9
2021-07-05T03:57:00+09:00,4,��,7,��,25,96.6,0,0,0,6,0,0,997.6,1010.9
2021-07-05T03:58:00+09:00,4,��,7,��,25,96.6,0,0,0,6,0,0,997.6,1010.9
2021-07-05T03:59:00+09:00,3.9,��,7,��,25,96.6,0,0,0,6,0,0,997.6,1010.9
2021-07-05T04:00:00+09:00,3.9,��,7,��,25,96.6,0,0,0,6,0,0,997.6,1010.9
2021-07-05T04:01:00+09:00,3.9,��,7,��,25,96.5,0,0,0,6,0,0,997.6,1010.9
2021-07-05T04:02:00+09:00,3.8,��,7,��쐼,25,96.5,0,0,0,6,0,0,997.7,1011
2021-07-05T04:03:00+09:00,3.7,��,7,��쐼,25,96.6,0,0,0,6,0,0,997.7,1011
2021-07-05T04:04:00+09:00,3.7,��,6.9,��,25,96.6,0,0,0,6,0,0,997.7,1011
2021-07-05T04:05:00+09:00,3.7,��,6.9,��,25,96.6,0,0,0,6,0,0,997.7,1011
2021-07-05T04:06:00+09:00,3.6,��,6.4,��,25,96.6,0,0,0,6,0,0,997.8,1011.1
2021-07-05T04:07:00+09:00,3.5,��,6.4,��,25,96.6,0,0,0,6,0,0,997.8,1011.1
2021-07-05T04:08:00+09:00,3.4,��,6.4,��,25,96.6,0,0,0,6,0,0,997.7,1011
2021-07-05T04:09:00+09:00,3.3,��,6.4,��,25,96.6,0,0,0,6,0,0,997.7,1011
2021-07-05T04:10:00+09:00,3.3,��,6.4,��,25,96.6,0,0,0,6,0,0,997.7,1011
2021-07-05T04:11:00+09:00,3.3,��,6.4,��,25,96.6,0,0,0,6,0,0,997.7,1011
2021-07-05T04:12:00+09:00,3.2,��,6.1,��쐼,25,96.6,0,0,0,6,0,0,997.7,1011
2021-07-05T04:13:00+09:00,3,��,6.1,��쐼,25,96.6,0,0,0,6,0,0,997.7,1011
2021-07-05T04:14:00+09:00,2.9,��,6.5,��,25,96.7,0,0,0,6,0,0,997.7,1011
2021-07-05T04:15:00+09:00,2.7,��,6.5,��,25,96.7,0,0,0,6,0,0,997.7,1011
2021-07-05T04:16:00+09:00,2.6,��,6.5,��,25,96.6,0,0,0,6,0,0,997.7,1011
2021-07-05T04:17:00+09:00,2.5,��,6.5,��,25,96.6,0,0,0,6,0,0,997.7,1011
2021-07-05T04:18:00+09:00,2.5,��,6.5,��,25,96.6,0,0,0,6,0,0,997.7,1011
2021-07-05T04:19:00+09:00,2.7,��,7,��,25,96.6,0,0,0,6,0,0,997.7,1011
2021-07-05T04:20:00+09:00,2.8,��,7,��,25,96.6,0,0,0,6,0,0,997.8,1011.1
2021-07-05T04:21:00+09:00,2.8,��,7,��,25,96.6,0,0,0,6,0,0,997.7,1011
2021-07-05T04:22:00+09:00,2.8,��,7.1,��,25,96.5,0,0,0,6,0,0,997.8,1011.1
2021-07-05T04:23:00+09:00,3,��,7.1,��,25,96.5,0,0,0,6,0,0,997.7,1011
2021-07-05T04:24:00+09:00,3,��,7.1,��,25,96.5,0,0,0,6,0,0,997.8,1011.1
2021-07-05T04:25:00+09:00,3.1,��,7.1,��,25,96.5,0,0,0,6,0,0,997.8,1011.1
2021-07-05T04:26:00+09:00,3.2,��,7.1,��,25,96.5,0,0,0,6,0,0,997.8,1011.1
2021-07-05T04:27:00+09:00,3.4,��,7.1,��,25,96.5,0,0,0,6,0,0,997.8,1011.1
2021-07-05T04:28:00+09:00,3.5,��,7.1,��,25.1,96.4,0,0,0,6,0,0,997.8,1011.1
2021-07-05T04:29:00+09:00,3.3,��,7.1,��,25.1,96.4,0,0,0,6,0,0,997.8,1011.1
2021-07-05T04:30:00+09:00,3.1,��,7.1,��,25.1,96.3,0,0,0,6,0,0,997.9,1011.2
2021-07-05T04:31:00+09:00,3.3,��,7.1,��,25.1,96.3,0,0,0,6,0,0,997.9,1011.2
2021-07-05T04:32:00+09:00,3.2,��,6.9,��,25.1,96.3,0,0,0,6,0,0,997.9,1011.2
2021-07-05T04:33:00+09:00,3,��,6.9,��,25.1,96.2,0,0,0,6,0,0,997.9,1011.2
2021-07-05T04:34:00+09:00,3.1,��,7.3,��쓌,25.1,96.2,0,0,0,6,0,0,997.8,1011.1
2021-07-05T04:35:00+09:00,3.1,��,7.3,��쓌,25.1,96.2,0,0,0,6,0,0,997.8,1011.1
2021-07-05T04:36:00+09:00,3.2,��,7.3,��쓌,25.1,96.2,0,0,0,6,0,0,998,1011.3
2021-07-05T04:37:00+09:00,3.2,��,7.3,��쓌,25.1,96.2,0,0,0,6,0,0,998,1011.3
2021-07-05T04:38:00+09:00,3.4,��,7.5,��,25.1,96.1,0,0,0,6,0,0,998,1011.3
2021-07-05T04:39:00+09:00,3.4,��,7.5,��,25.1,96,0,0,0,6,0,0,997.9,1011.2
2021-07-05T04:40:00+09:00,3.5,��,8,��쓌,25.1,96,0,0,0,6,0,0,997.9,1011.2
2021-07-05T04:41:00+09:00,3.5,��,8,��쓌,25.2,96,0,0,0,6,0,0,998,1011.3
2021-07-05T04:42:00+09:00,3.6,��,8,��쓌,25.1,95.9,0,0,0,6,0,0,998,1011.3
2021-07-05T04:43:00+09:00,3.7,��,8,��쓌,25.1,95.9,0,0,0,6,0,0,997.9,1011.2
2021-07-05T04:44:00+09:00,3.8,��,8,��쓌,25.1,95.9,0,0,0,6,0,0,998,1011.3
2021-07-05T04:45:00+09:00,3.7,��,8,��쓌,25.2,95.8,0,0,0,6,0,0,998,1011.3
2021-07-05T04:46:00+09:00,3.5,��,8,��쓌,25.1,95.8,0,0,0,6,0,0,998,1011.3
2021-07-05T04:47:00+09:00,3.4,��,8,��쓌,25.1,95.8,0,0,0,6,0,0,998,1011.3
2021-07-05T04:48:00+09:00,3.2,��,8,��쓌,25.1,95.8,0,0,0,6,0,0,998,1011.3
2021-07-05T04:49:00+09:00,3.3,��,8,��쓌,25.1,95.8,0,0,0,6,0,0,998,1011.3
2021-07-05T04:50:00+09:00,3.4,��,7,�쓌,25.1,95.8,0,0,0,6,0,0,998.1,1011.4
2021-07-05T04:51:00+09:00,3.3,��,6.3,��쓌,25.1,95.8,0,0,0,6,0,0,998,1011.3
2021-07-05T04:52:00+09:00,3.3,��,6.3,��쓌,25.1,95.9,0,0,0,6,0,0,998.1,1011.4
2021-07-05T04:53:00+09:00,3.4,��,6.9,��쓌,25.1,95.9,0,0,0,6,0,0,998.1,1011.4
2021-07-05T04:54:00+09:00,3.4,��,6.9,��쓌,25.1,95.9,0,0,0,6,0,0,998.1,1011.4
2021-07-05T04:55:00+09:00,3.3,��,6.9,��쓌,25.1,95.8,0,0,0,6,0,0,998.1,1011.4
2021-07-05T04:56:00+09:00,3.4,��,6.9,��쓌,25.1,95.8,0,0,0,6,0,0,998.1,1011.4
2021-07-05T04:57:00+09:00,3.3,��,6.9,��쓌,25.1,95.8,0,0,0,6,0,0,998.1,1011.4
2021-07-05T04:58:00+09:00,3.4,��,6.9,��쓌,25.1,95.8,0,0,0,6,0,0,998.1,1011.4
2021-07-05T04:59:00+09:00,3.4,��,7,��,25.2,95.8,0,0,0,6,0,0,998.2,1011.5
2021-07-05T05:00:00+09:00,3.4,��,7,��,25.2,95.8,0,0,0,6,0,0,998.2,1011.5
2021-07-05T05:01:00+09:00,3.4,��,7,��,25.2,95.8,0,0,0,6,0,0,998.2,1011.5
2021-07-05T05:02:00+09:00,3.5,��,7,��,25.2,95.7,0,0,0,6,0,0,998.2,1011.5
2021-07-05T05:03:00+09:00,3.4,��,7,��,25.1,95.7,0,0,0,6,0,0,998.2,1011.5
2021-07-05T05:04:00+09:00,3.5,��,7,��,25.2,95.7,0,0,0,6,0,0,998.2,1011.5
2021-07-05T05:05:00+09:00,3.7,��,7,��,25.1,95.7,0,0,0,6,0,0,998.2,1011.5
2021-07-05T05:06:00+09:00,3.8,��,7,��,25.1,95.7,0,0,0,6,0,0,998.2,1011.5
2021-07-05T05:07:00+09:00,4,��,7,��,25.1,95.7,0,0,0,6,0,0,998.2,1011.5
2021-07-05T05:08:00+09:00,4.1,��,7.2,��,25.2,95.7,0,0,0,6,0,0,998.2,1011.5
2021-07-05T05:09:00+09:00,4.1,��,7.6,��,25.2,95.7,0,0,0,6,0,0,998.1,1011.4
2021-07-05T05:10:00+09:00,4.1,��,7.6,��,25.2,95.7,0,0,0,6,0,0,998.1,1011.4
2021-07-05T05:11:00+09:00,4,��,7.6,��,25.2,95.6,0,0,0,6,0,0,998.1,1011.4
2021-07-05T05:12:00+09:00,4,��,7.6,��,25.1,95.6,0,0,0,6,0,0,998.1,1011.4
2021-07-05T05:13:00+09:00,4.1,��,7.6,��,25.2,95.6,0,0,0,6,0,0,998.1,1011.4
2021-07-05T05:14:00+09:00,4.1,��,8.1,��,25.2,95.6,0,0,0,6,0,0,998.1,1011.4
2021-07-05T05:15:00+09:00,4,��,8.1,��,25.2,95.6,0,0,0,6,0,0,998.1,1011.4
2021-07-05T05:16:00+09:00,4,��,8.1,��,25.2,95.6,0,0,0,6,0,0,998,1011.3
2021-07-05T05:17:00+09:00,3.9,��,8.1,��,25.2,95.6,0,0,0,6,0,0,998,1011.3
2021-07-05T05:18:00+09:00,3.9,��,8.3,��,25.2,95.5,0,0,0,6,0,0,998,1011.3
2021-07-05T05:19:00+09:00,3.8,��,8.3,��,25.2,95.5,0,0,0,6,0,0,998,1011.3
2021-07-05T05:20:00+09:00,3.8,��,8.3,��,25.1,95.5,0,0,0,6,0,0,998.1,1011.4
2021-07-05T05:21:00+09:00,3.8,��,8.3,��,25.1,95.6,0,0,0,6,0.01,0,998.2,1011.5